Ludington, MI

11:59 AM EST on December 07, 2019 (GMT -0500)
Mason County

Weather History for KLDM - November, 2019

Change the Weather History Date:

Sunday, November 17, 2019

  Actual Average Record
Temperature  
Mean Temperature 30 °F -  
Max Temperature 36 °F 45 °F 68 °F (2016)
Min Temperature 24 °F 32 °F 4 °F (1959)
Degree Days  
Heating Degree Days 35    
Moisture  
Dew Point 23 °F    
Average Humidity 74    
Maximum Humidity 88    
Minimum Humidity 55    
Precipitation  
Precipitation 0.00 in - - ()
Sea Level Pressure  
Sea Level Pressure 30.01 in    
Wind  
Wind Speed 6 mph ()    
Max Wind Speed 10 mph    
Max Gust Speed -    
Visibility 9.8 miles    
Events Rain , Snow    
Averages and records for this station are not official NWS values.
T = Trace of Precipitation, MM = Missing Value Source: Averaged Metar Reports

Daily Weather History Graph

Daily Weather History Graph

Search for Another Location

Airport or City:

Astronomy

Nov. 17, 2019 Rise Set
Actual Time 7:42 AM EST 5:17 PM EST
Civil Twilight 7:11 AM EST 5:49 PM EST
Nautical Twilight 6:36 AM EST 6:24 PM EST
Astronomical Twilight 6:02 AM EST 6:58 PM EST
Moon 9:51 PM EST (11/17) 12:31 PM EST (11/17)
Length of Visible Light 10h 37m
Length of Day
9h 35m
Waning Gibbous, 73% of the Moon is Illuminated
Nov 17
Waning Gibbous
Nov 19
Last Quarter
Nov 26
New
Dec 4
First Quarter
Dec 12
Full

Hourly Weather History & Observations

Time (EST) Temp. Windchill Dew Point Humidity Pressure Visibility Wind Dir Wind Speed Gust Speed Precip Events Conditions
12:15 AM 26.4 °F 19.8 °F 12.2 °F 55% 30.26 in 10.0 mi SE 5.8 mph - N/A   Clear
12:16 AM 26.4 °F 19.8 °F 12.2 °F 55% 30.26 in 10.0 mi SE 5.8 mph - N/A   Clear
12:35 AM 26.2 °F 17.8 °F 12.9 °F 57% 30.25 in 10.0 mi SE 8.1 mph - N/A   Clear
12:55 AM 26.4 °F 18.0 °F 14.4 °F 60% 30.23 in 10.0 mi SE 8.1 mph - N/A   Clear
1:35 AM 26.4 °F 18.9 °F 16.7 °F 67% 30.22 in 10.0 mi SE 6.9 mph - N/A   Clear
1:55 AM 26.2 °F 20.7 °F 17.6 °F 70% 30.22 in 10.0 mi SE 4.6 mph - N/A   Clear
1:56 AM 26.2 °F 20.7 °F 17.6 °F 70% 30.22 in 10.0 mi SE 4.6 mph - N/A   Clear
2:15 AM 25.9 °F 20.3 °F 18.0 °F 72% 30.22 in 10.0 mi ESE 4.6 mph - N/A   Clear
2:35 AM 25.2 °F 19.5 °F 17.8 °F 74% 30.21 in 10.0 mi SE 4.6 mph - N/A   Clear
2:36 AM 25.2 °F 18.3 °F 17.8 °F 74% 30.21 in 10.0 mi SE 5.8 mph - N/A   Clear
2:55 AM 25.0 °F 20.7 °F 18.3 °F 76% 30.20 in 10.0 mi SE 3.5 mph - N/A   Clear
3:15 AM 24.8 °F 19.1 °F 18.5 °F 77% 30.19 in 10.0 mi SE 4.6 mph - N/A   Clear
3:35 AM 24.3 °F 17.3 °F 18.5 °F 79% 30.18 in 10.0 mi ESE 5.8 mph - N/A   Clear
3:55 AM 24.8 °F 19.1 °F 18.5 °F 77% 30.18 in 10.0 mi SE 4.6 mph - N/A   Clear
3:56 AM 24.6 °F 18.8 °F 18.5 °F 78% 30.18 in 10.0 mi SE 4.6 mph - N/A   Clear
4:15 AM 24.3 °F 17.3 °F 18.5 °F 79% 30.17 in 10.0 mi ESE 5.8 mph - N/A   Clear
4:35 AM 24.3 °F 18.4 °F 18.5 °F 79% 30.17 in 10.0 mi ESE 4.6 mph - N/A   Clear
4:36 AM 24.3 °F 18.4 °F 18.5 °F 79% 30.17 in 10.0 mi ESE 4.6 mph - N/A   Clear
4:55 AM 24.6 °F 18.8 °F 18.7 °F 78% 30.16 in 10.0 mi SE 4.6 mph - N/A   Mostly Cloudy
5:15 AM 24.8 °F 17.9 °F 18.7 °F 78% 30.15 in 10.0 mi SE 5.8 mph - N/A   Overcast
5:35 AM 24.8 °F 17.9 °F 18.5 °F 77% 30.15 in 10.0 mi SE 5.8 mph - N/A   Scattered Clouds
5:55 AM 24.6 °F 17.7 °F 18.5 °F 78% 30.13 in 10.0 mi SE 5.8 mph - N/A   Clear
6:15 AM 24.8 °F 19.1 °F 18.9 °F 78% 30.13 in 10.0 mi SE 4.6 mph - N/A   Clear
6:16 AM 24.8 °F 17.9 °F 18.7 °F 78% 30.12 in 10.0 mi SE 5.8 mph - N/A   Clear
6:35 AM 25.2 °F 17.3 °F 19.0 °F 78% 30.12 in 10.0 mi SE 6.9 mph - N/A   Mostly Cloudy
6:55 AM 25.7 °F 17.1 °F 19.4 °F 77% 30.12 in 10.0 mi SE 8.1 mph - N/A   Overcast
6:56 AM 25.7 °F 17.1 °F 19.4 °F 77% 30.12 in 10.0 mi SE 8.1 mph - N/A   Overcast
7:15 AM 26.1 °F 17.6 °F 19.4 °F 76% 30.11 in 10.0 mi SE 8.1 mph - N/A   Overcast
7:16 AM 26.1 °F 17.6 °F 19.4 °F 76% 30.11 in 10.0 mi SSE 8.1 mph - N/A   Overcast
7:35 AM 26.2 °F 17.8 °F 19.4 °F 75% 30.10 in 10.0 mi SSE 8.1 mph - N/A   Overcast
7:36 AM 26.2 °F 17.1 °F 19.4 °F 75% 30.10 in 10.0 mi SSE 9.2 mph - N/A   Overcast
7:55 AM 26.4 °F 18.9 °F 19.9 °F 77% 30.10 in 10.0 mi SSE 6.9 mph - N/A   Overcast
8:15 AM 26.4 °F 18.0 °F 20.3 °F 78% 30.09 in 10.0 mi SE 8.1 mph - N/A   Overcast
8:35 AM 26.6 °F 18.2 °F 20.3 °F 77% 30.09 in 10.0 mi SE 8.1 mph - N/A   Overcast
8:36 AM 26.6 °F 17.5 °F 20.3 °F 77% 30.09 in 10.0 mi SSE 9.2 mph - N/A   Overcast
8:55 AM 26.6 °F 19.1 °F 20.5 °F 78% 30.09 in 10.0 mi SSE 6.9 mph - N/A   Overcast
9:15 AM 27.0 °F 18.7 °F 20.8 °F 78% 30.08 in 10.0 mi SE 8.1 mph - N/A   Overcast
9:16 AM 27.0 °F 19.5 °F 20.8 °F 78% 30.08 in 10.0 mi SSE 6.9 mph - N/A   Overcast
9:35 AM 27.5 °F 19.3 °F 21.4 °F 78% 30.07 in 10.0 mi SE 8.1 mph - N/A   Mostly Cloudy
9:55 AM 27.9 °F 19.1 °F 21.7 °F 78% 30.05 in 10.0 mi SE 9.2 mph - N/A   Scattered Clouds
9:56 AM 27.9 °F 19.1 °F 21.7 °F 78% 30.05 in 10.0 mi SE 9.2 mph - N/A   Scattered Clouds
10:15 AM 28.4 °F 19.1 °F 22.1 °F 77% 30.05 in 10.0 mi SE 10.4 mph - N/A   Clear
10:35 AM 29.3 °F 20.8 °F 23.0 °F 77% 30.03 in 10.0 mi SE 9.2 mph - N/A   Clear
10:55 AM 30.2 °F 25.4 °F 23.7 °F 77% 30.04 in 10.0 mi South 4.6 mph - N/A   Clear
10:56 AM 30.4 °F 24.5 °F 23.9 °F 77% 30.04 in 10.0 mi South 5.8 mph - N/A   Clear
11:15 AM 31.3 °F 25.6 °F 24.6 °F 76% 30.04 in 10.0 mi SSE 5.8 mph - N/A   Clear
11:35 AM 32.0 °F 24.2 °F 25.7 °F 78% 30.03 in 10.0 mi SSE 9.2 mph - N/A   Clear
11:55 AM 32.5 °F 26.2 °F 25.9 °F 76% 30.01 in 10.0 mi SSE 6.9 mph - N/A   Clear
11:56 AM 32.5 °F 26.2 °F 25.9 °F 76% 30.01 in 10.0 mi SE 6.9 mph - N/A   Clear
12:15 PM 32.9 °F 27.5 °F 26.1 °F 76% 30.00 in 10.0 mi South 5.8 mph - N/A   Clear
12:35 PM 32.9 °F 27.5 °F 25.9 °F 75% 30.00 in 10.0 mi South 5.8 mph - N/A   Clear
1:15 PM 33.8 °F 27.7 °F 26.6 °F 75% 29.97 in 10.0 mi SSE 6.9 mph - N/A   Mostly Cloudy
1:16 PM 33.8 °F 28.6 °F 26.6 °F 75% 29.97 in 10.0 mi SSE 5.8 mph - N/A   Mostly Cloudy
1:35 PM 34.0 °F 28.8 °F 27.0 °F 75% 29.96 in 10.0 mi SSE 5.8 mph - N/A   Mostly Cloudy
1:55 PM 34.2 °F 30.0 °F 27.0 °F 75% 29.95 in 10.0 mi SE 4.6 mph - N/A   Overcast
2:15 PM 34.2 °F 29.0 °F 27.1 °F 75% 29.94 in 10.0 mi SSE 5.8 mph - N/A   Overcast
2:35 PM 34.2 °F 27.5 °F 27.0 °F 75% 29.93 in 10.0 mi SE 8.1 mph - N/A   Overcast
2:55 PM 34.2 °F 27.5 °F 26.6 °F 74% 29.92 in 10.0 mi SE 8.1 mph - N/A   Overcast
2:56 PM 34.2 °F 28.2 °F 26.6 °F 74% 29.92 in 10.0 mi SSE 6.9 mph - N/A   Overcast
3:15 PM 34.3 °F 27.7 °F 26.4 °F 73% 29.91 in 10.0 mi SE 8.1 mph - N/A   Overcast
3:16 PM 34.3 °F 28.4 °F 26.4 °F 73% 29.91 in 10.0 mi SE 6.9 mph - N/A   Overcast
3:35 PM 34.7 °F 29.6 °F 25.9 °F 70% 29.91 in 10.0 mi SSE 5.8 mph - N/A   Overcast
3:36 PM 34.7 °F 28.8 °F 25.9 °F 70% 29.91 in 10.0 mi SSE 6.9 mph - N/A   Overcast
3:56 PM 34.3 °F 27.7 °F 25.5 °F 70% 29.91 in 10.0 mi SSE 8.1 mph - N/A   Overcast
4:15 PM 34.5 °F 27.9 °F 25.3 °F 69% 29.90 in 10.0 mi SE 8.1 mph - N/A   Overcast
4:35 PM 34.3 °F 29.2 °F 25.3 °F 70% 29.90 in 10.0 mi SSE 5.8 mph - N/A   Overcast
4:36 PM 34.3 °F 30.2 °F 25.3 °F 70% 29.90 in 10.0 mi SSE 4.6 mph - N/A   Overcast
4:55 PM 34.2 °F 29.0 °F 24.8 °F 69% 29.90 in 10.0 mi SE 5.8 mph - N/A   Overcast
5:15 PM 34.2 °F 29.0 °F 25.0 °F 69% 29.90 in 10.0 mi SSE 5.8 mph - N/A   Overcast
5:35 PM 34.2 °F 29.0 °F 25.3 °F 70% 29.89 in 10.0 mi SE 5.8 mph - N/A   Overcast
5:55 PM 34.2 °F 30.0 °F 25.5 °F 71% 29.89 in 10.0 mi SE 4.6 mph - N/A   Overcast
6:15 PM 34.2 °F 28.2 °F 25.7 °F 71% 29.89 in 10.0 mi SE 6.9 mph - N/A   Overcast
6:16 PM 34.2 °F 28.2 °F 25.7 °F 71% 29.89 in 10.0 mi SE 6.9 mph - N/A   Overcast
6:35 PM 34.2 °F 30.0 °F 25.9 °F 72% 29.89 in 10.0 mi SSE 4.6 mph - N/A   Overcast
6:36 PM 34.2 °F 30.0 °F 25.9 °F 72% 29.89 in 10.0 mi SE 4.6 mph - N/A   Overcast
6:55 PM 34.7 °F 29.6 °F 26.2 °F 71% 29.88 in 10.0 mi SE 5.8 mph - N/A   Overcast
7:15 PM 34.7 °F 30.6 °F 26.6 °F 72% 29.88 in 10.0 mi SE 4.6 mph - N/A   Overcast
7:16 PM 34.7 °F 30.6 °F 26.6 °F 72% 29.88 in 10.0 mi SE 4.6 mph - N/A   Overcast
7:35 PM 34.7 °F 30.6 °F 27.0 °F 73% 29.87 in 10.0 mi SE 4.6 mph - N/A   Overcast
7:55 PM 34.7 °F 30.6 °F 27.5 °F 75% 29.87 in 10.0 mi SE 4.6 mph - N/A   Overcast
8:15 PM 35.1 °F 32.2 °F 27.3 °F 73% 29.87 in 10.0 mi SSE 3.5 mph - N/A   Overcast
8:16 PM 35.1 °F 31.0 °F 27.3 °F 73% 29.87 in 10.0 mi SE 4.6 mph - N/A   Overcast
8:35 PM 35.6 °F 31.7 °F 27.3 °F 72% 29.87 in 10.0 mi SSE 4.6 mph - N/A   Overcast
8:36 PM 35.6 °F 30.7 °F 27.3 °F 72% 29.87 in 10.0 mi SSE 5.8 mph - N/A   Overcast
8:55 PM 36.0 °F 30.3 °F 27.5 °F 71% 29.87 in 10.0 mi SSE 6.9 mph - N/A   Overcast
8:56 PM 36.0 °F 29.6 °F 27.5 °F 71% 29.87 in 10.0 mi SSE 8.1 mph - N/A   Overcast
9:15 PM 36.0 °F 31.1 °F 27.3 °F 71% 29.86 in 10.0 mi SSE 5.8 mph - N/A   Overcast
9:16 PM 36.0 °F 31.1 °F 27.3 °F 71% 29.86 in 10.0 mi SSE 5.8 mph - N/A   Overcast
9:35 PM 35.8 °F 30.9 °F 27.7 °F 72% 29.86 in 10.0 mi SSE 5.8 mph - N/A   Overcast
9:36 PM 35.8 °F 31.9 °F 27.5 °F 72% 29.86 in 10.0 mi SSE 4.6 mph - N/A   Overcast
9:55 PM 35.6 °F 31.7 °F 28.4 °F 75% 29.85 in 7.0 mi SSE 4.6 mph - N/A Snow Light Snow
9:56 PM 35.6 °F 31.7 °F 28.4 °F 75% 29.85 in 7.0 mi SSE 4.6 mph - N/A Snow Light Snow
10:15 PM 35.1 °F 31.0 °F 29.3 °F 80% 29.84 in 7.0 mi SSE 4.6 mph - N/A Rain Light Rain
10:35 PM 34.7 °F 30.6 °F 30.2 °F 84% 29.84 in 7.0 mi SSE 4.6 mph - N/A   Overcast
10:55 PM 34.7 °F 30.6 °F 30.7 °F 85% 29.84 in 10.0 mi SSE 4.6 mph - N/A   Overcast
11:15 PM 34.7 °F 30.6 °F 30.7 °F 85% 29.84 in 10.0 mi SSE 4.6 mph - N/A   Overcast
11:35 PM 34.5 °F 31.6 °F 31.1 °F 87% 29.83 in 10.0 mi SE 3.5 mph - N/A   Overcast
11:55 PM 34.3 °F 30.2 °F 31.1 °F 88% 29.82 in 7.0 mi SSE 4.6 mph - N/A   Drizzle